Date String (YYYY-MM-DD hh:mm:ss) UTC,Instrument flags,Ambient pressure (hPa),Sample flow (lpm),Bypass flow (lpm),Sample temperature (°C),Ambient temperature (°C),ASC tube jacket temperature (°C),LED temperature (°C),Box temperature (°C),Sample RH (%),Span deviation,Mass concentration (μg/m³),Mass concentration (μg/m³),Mass concentration (μg/m³)
DateTimeUTC,F1_M11,P_M11,Q1_M11,Q2_M11,T1_M11,T2_M11,T3_M11,T4_M11,T5_M11,U1_M11,ZSPAN_M11,X2_M11,X0_M11,X1_M11
2023-05-16 23:00:00,,0831.9,4.99,0.00,29.6,28.3,00.0,37.8,31.3,20.2,0000.0,0004.91,0012.81,0003.63
2023-05-16 23:01:00,,0832.2,5.00,0.00,29.6,27.9,00.0,37.8,31.3,20.6,0000.0,0004.86,0012.80,0003.62
2023-05-16 23:02:00,,0832.1,5.00,0.00,29.6,26.3,00.0,37.8,31.0,20.7,0000.0,0004.89,0012.73,0003.62
2023-05-16 23:03:00,,0831.8,5.00,0.00,29.5,25.8,00.0,37.7,30.9,21.0,0000.0,0004.94,0012.73,0003.63
2023-05-16 23:04:00,,0831.7,5.01,0.00,29.4,26.0,00.0,37.7,30.8,21.2,0000.0,0004.93,0012.89,0003.63
2023-05-16 23:05:00,,0831.7,5.01,0.00,29.4,26.3,00.0,37.7,30.9,20.9,0000.0,0004.91,0012.71,0003.63
2023-05-16 23:06:00,,0831.7,4.99,0.00,29.4,26.6,00.0,37.7,30.9,21.1,0000.0,0004.93,0013.94,0003.65
2023-05-16 23:07:00,,0831.9,5.00,0.00,29.4,26.9,00.0,37.7,31.0,20.7,0000.0,0004.92,0013.74,0003.65
2023-05-16 23:08:00,,0832.1,4.99,0.00,29.4,27.2,00.0,37.7,31.0,21.0,0000.0,0004.91,0013.54,0003.64
2023-05-16 23:09:00,,0832.1,5.01,0.00,29.4,27.4,00.0,37.7,31.1,20.3,0000.0,0004.88,0013.38,0003.64
2023-05-16 23:10:00,,0832.3,5.01,0.00,29.4,27.6,00.0,37.7,31.1,20.4,0000.0,0004.87,0013.39,0003.64
2023-05-16 23:11:00,,0832.2,5.01,0.00,29.4,27.8,00.0,37.7,31.1,20.3,0000.0,0004.91,0013.05,0003.65
2023-05-16 23:12:00,,0832.3,5.00,0.00,29.5,27.9,00.0,37.7,31.2,21.0,0000.0,0004.96,0013.26,0003.66
2023-05-16 23:13:00,,0832.3,4.99,0.00,29.5,28.1,00.0,37.8,31.2,20.6,0000.0,0004.92,0013.02,0003.66
2023-05-16 23:14:00,,0832.1,5.01,0.00,29.5,28.2,00.0,37.8,31.2,20.7,0000.0,0004.85,0013.12,0003.66
2023-05-16 23:15:00,,0832.2,5.00,0.00,29.5,28.3,00.0,37.8,31.3,19.8,0000.0,0004.85,0013.57,0003.65
2023-05-16 23:16:00,,0832.1,5.00,0.00,29.6,28.3,00.0,37.8,31.3,19.2,0000.0,0004.92,0013.62,0003.66
2023-05-16 23:17:00,,0832.1,5.00,0.00,29.6,28.3,00.0,37.8,31.3,18.3,0000.0,0004.94,0012.60,0003.65
2023-05-16 23:18:00,,0832.2,4.99,0.00,29.6,27.1,00.0,37.8,31.2,18.6,0000.0,0004.96,0012.13,0003.66
2023-05-16 23:19:00,,0832.1,5.01,0.00,29.6,25.9,00.0,37.7,31.0,18.8,0000.0,0005.02,0012.23,0003.66
2023-05-16 23:20:00,,0831.8,5.02,0.00,29.5,25.9,00.0,37.7,30.8,19.7,0000.0,0005.05,0012.37,0003.66
2023-05-16 23:21:00,,0831.8,5.00,0.00,29.4,26.1,00.0,37.7,30.8,20.9,0000.0,0005.06,0012.42,0003.67
2023-05-16 23:22:00,,0831.7,4.99,0.00,29.4,26.4,00.0,37.7,30.9,20.5,0000.0,0005.04,0012.67,0003.67
2023-05-16 23:23:00,,0831.7,5.00,0.00,29.4,26.7,00.0,37.7,30.9,20.4,0000.0,0005.03,0012.04,0003.67
2023-05-16 23:24:00,,0831.7,5.00,0.00,29.4,27.0,00.0,37.7,31.0,19.7,0000.0,0005.01,0011.95,0003.67
2023-05-16 23:25:00,,0831.7,5.02,0.00,29.4,27.3,00.0,37.7,31.0,18.9,0000.0,0005.06,0012.00,0003.68
2023-05-16 23:26:00,,0831.7,4.99,0.00,29.4,27.5,00.0,37.7,31.1,19.7,0000.0,0005.06,0011.45,0003.69
2023-05-16 23:27:00,,0831.7,4.99,0.00,29.4,27.7,00.0,37.7,31.1,20.8,0000.0,0005.04,0010.88,0003.69
2023-05-16 23:28:00,,0831.7,5.01,0.00,29.4,27.8,00.0,37.7,31.1,21.0,0000.0,0005.04,0011.17,0003.69
2023-05-16 23:29:00,,0831.7,4.99,0.00,29.5,28.0,00.0,37.7,31.2,19.2,0000.0,0005.01,0011.29,0003.71
2023-05-16 23:30:00,,0831.7,4.98,0.00,29.5,28.1,00.0,37.8,31.2,19.1,0000.0,0004.97,0011.44,0003.71
2023-05-16 23:31:00,,0831.6,5.01,0.00,29.5,28.2,00.0,37.8,31.2,18.9,0000.0,0004.95,0011.56,0003.71
2023-05-16 23:32:00,,0831.6,5.01,0.00,29.6,28.3,00.0,37.8,31.3,19.7,0000.0,0004.98,0011.51,0003.72
2023-05-16 23:33:00,,0831.6,4.99,0.00,29.6,28.3,00.0,37.8,31.3,19.4,0000.0,0004.95,0011.72,0003.72
2023-05-16 23:34:00,,0831.6,4.99,0.00,29.6,27.0,00.0,37.8,31.2,19.0,0000.0,0004.95,0011.93,0003.72
2023-05-16 23:35:00,,0831.6,5.00,0.00,29.5,25.8,00.0,37.7,31.0,18.7,0000.0,0004.99,0011.91,0003.72
2023-05-16 23:36:00,,0831.5,5.00,0.00,29.5,25.8,00.0,37.7,30.8,19.3,0000.0,0005.00,0011.92,0003.72
2023-05-16 23:37:00,,0831.5,5.01,0.00,29.4,26.1,00.0,37.7,30.8,19.3,0000.0,0005.03,0012.04,0003.72
2023-05-16 23:38:00,,0831.6,5.01,0.00,29.4,26.4,00.0,37.7,30.9,19.1,0000.0,0004.98,0012.09,0003.72
2023-05-16 23:39:00,,0831.6,4.99,0.00,29.4,26.7,00.0,37.7,30.9,19.2,0000.0,0004.91,0011.98,0003.72
2023-05-16 23:40:00,,0831.6,4.99,0.00,29.4,27.0,00.0,37.7,31.0,19.0,0000.0,0004.91,0011.97,0003.71
2023-05-16 23:41:00,,0831.6,5.00,0.00,29.4,27.3,00.0,37.7,31.0,19.3,0000.0,0004.92,0012.57,0003.71
2023-05-16 23:42:00,,0831.6,5.01,0.00,29.4,27.5,00.0,37.7,31.1,19.9,0000.0,0004.97,0012.71,0003.71
2023-05-16 23:43:00,,0831.6,5.01,0.00,29.4,27.7,00.0,37.7,31.1,19.8,0000.0,0005.04,0013.04,0003.71
2023-05-16 23:44:00,,0831.6,4.98,0.00,29.4,27.8,00.0,37.7,31.1,19.2,0000.0,0005.00,0013.10,0003.70
2023-05-16 23:45:00,,0831.6,5.01,0.00,29.5,28.0,00.0,37.7,31.2,18.6,0000.0,0005.04,0012.72,0003.71
2023-05-16 23:46:00,,0831.6,5.01,0.00,29.5,28.1,00.0,37.7,31.2,18.2,0000.0,0005.00,0012.69,0003.70
2023-05-16 23:47:00,,0831.6,5.01,0.00,29.5,28.2,00.0,37.8,31.2,17.9,0000.0,0005.00,0012.75,0003.71
2023-05-16 23:48:00,,0831.6,5.00,0.00,29.5,28.2,00.0,37.8,31.2,17.7,0000.0,0004.97,0012.53,0003.70
2023-05-16 23:49:00,,0831.5,4.99,0.00,29.6,28.3,00.0,37.8,31.3,17.7,0000.0,0005.00,0012.22,0003.70
2023-05-16 23:50:00,,0831.6,5.01,0.00,29.6,28.3,00.0,37.8,31.3,17.6,0000.0,0005.06,0012.16,0003.70
2023-05-16 23:51:00,,0831.6,4.98,0.00,29.6,27.1,00.0,37.8,31.1,17.6,0000.0,0005.12,0012.38,0003.72
2023-05-16 23:52:00,,0831.6,5.00,0.00,29.5,25.9,00.0,37.7,31.0,17.7,0000.0,0005.12,0011.67,0003.73
2023-05-16 23:53:00,,0831.6,5.00,0.00,29.5,25.8,00.0,37.7,30.8,17.8,0000.0,0005.08,0011.67,0003.73
2023-05-16 23:54:00,,0831.5,5.01,0.00,29.4,26.0,00.0,37.7,30.8,17.8,0000.0,0004.99,0011.45,0003.72
2023-05-16 23:55:00,,0831.6,4.99,0.00,29.4,26.3,00.0,37.7,30.8,17.9,0000.0,0005.00,0011.38,0003.73
2023-05-16 23:56:00,,0831.6,5.00,0.00,29.4,26.7,00.0,37.7,30.9,17.9,0000.0,0004.99,0011.39,0003.72
2023-05-16 23:57:00,,0831.6,5.00,0.00,29.4,26.9,00.0,37.7,30.9,17.9,0000.0,0005.00,0011.50,0003.71
2023-05-16 23:58:00,,0831.6,5.01,0.00,29.4,27.2,00.0,37.7,31.0,18.0,0000.0,0005.04,0011.73,0003.72
2023-05-16 23:59:00,,0831.6,5.00,0.00,29.4,27.4,00.0,37.7,31.0,18.0,0000.0,0005.06,0012.29,0003.73
